Вернуться в каталог

STARLINK-5154

АктивенСвязьVLEO
NORAD 54176·PAYLOAD·🇺🇸 United States

Запущен Oct 28, 2022 с Vandenberg Space Force Base

Loading…

Ближайшие Пролёты (ближайшие 24 часа)

TLE

СвежийSource: CelesTrak SupGP

Эпоха: Sep 14, 2026, 21:32 UTC

1 54176C 22141V   26257.89770833  .00017523  00000+0  51754-3 0  2579
2 54176  53.1570 219.6093 0001457  97.1999  67.1297 15.34391992    16

Отслеживайте STARLINK-5154 в реальном времени с AllMySat

Download on the App Store